Weather History for Morelia, Mexico

Change the Weather History Date:

Monday, October 31, 2011

  Actual Average Record
Temperature  
Mean Temperature 64 °F -  
Max Temperature 82 °F 75 °F 82 °F (1997)
Min Temperature 46 °F 47 °F 37 °F (2001)
Degree Days  
Heating Degree Days 1    
Growing Degree Days 14 (Base 50)    
Moisture  
Dew Point 39 °F    
Average Humidity 47    
Maximum Humidity 87    
Minimum Humidity 8    
Precipitation  
Precipitation 0.00 in 0.02 in - ()
Sea Level Pressure  
Sea Level Pressure 30.04 in    
Wind  
Wind Speed 3 mph ()    
Max Wind Speed 12 mph    
Max Gust Speed -    
Visibility 6.9 miles    
Events      
Averages and records for this station are not official NWS values.
T = Trace of Precipitation, MM = Missing Value Source: Averaged Metar Reports

Daily Weather History Graph

Daily Weather History Graph

Search for Another Location

Airport:

Trip Planner

Search our weather history database for the weather conditions in past years. The results will help you decide how hot, cold, wet, or windy it might be!

Date:

Astronomy

Oct. 31, 2011 Rise Set
Actual Time 6:44 AM CST 6:10 PM CST
Civil Twilight 6:22 AM CST 6:32 PM CST
Nautical Twilight 5:56 AM CST 6:59 PM CST
Astronomical Twilight 5:30 AM CST 7:24 PM CST
Moon 11:37 AM CST (10/31) 11:01 PM CST (10/31)
Length of Visible Light 12h 10m
Length of Day
11h 25m
Waxing Crescent, 30% of the Moon is Illuminated
Oct 31
Waxing Crescent
Nov 2
First Quarter
Nov 10
Full
Nov 18
Last Quarter
Nov 25
New

Hourly Weather History & Observations

Time (CST) Temp. Dew Point Humidity Pressure Visibility Wind Dir Wind Speed Gust Speed Precip Events Conditions
12:41 AM 51.8 °F 44.6 °F 76% 30.23 in 6.0 mi Calm Calm - N/A   Clear
1:40 AM 50.0 °F 41.0 °F 71% 30.22 in 6.0 mi Calm Calm - N/A   Clear
2:40 AM 50.0 °F 42.8 °F 76% 29.86 in 6.0 mi Calm Calm - N/A   Clear
2:55 AM 53 °F 47 °F 75% 29.88 in 5 mi South 2.2 mph - -  
3:40 AM 46.4 °F 41.0 °F 81% 30.23 in 6.0 mi Calm Calm - N/A   Clear
4:40 AM 46.4 °F 41.0 °F 81% 30.22 in 6.0 mi Calm Calm - N/A   Clear
5:40 AM 44.6 °F 41.0 °F 87% 29.89 in 6.0 mi Calm Calm - N/A   Clear
5:55 AM 47 °F 44 °F 85% 29.99 in 5 mi South 2.2 mph - -  
6:41 AM 41.0 °F 37.4 °F 87% 30.25 in 8.0 mi Calm Calm - N/A   Clear
8:55 AM 57 °F 43 °F 50% 30.05 in 6 mi SSW 2.2 mph - -  
9:52 AM 62.6 °F 41.0 °F 45% 30.26 in 7.0 mi Calm Calm - N/A   Clear
10:44 AM 69.8 °F 37.4 °F 31% 30.25 in 7.0 mi Calm Calm - N/A   Clear
11:40 AM 75.2 °F 24.8 °F 15% 29.87 in 7.0 mi ENE 11.5 mph - N/A   Clear
11:55 AM 74 °F 39 °F 17% 29.99 in 7 mi SSW 2.2 mph - -  
12:43 PM 77.0 °F 24.8 °F 14% 30.18 in 7.0 mi NE 11.5 mph - N/A   Clear
1:47 PM 78.8 °F 35.6 °F 21% 30.13 in 7.0 mi ENE 11.5 mph - N/A   Clear
2:49 PM 78.8 °F 37.4 °F 23% 29.73 in 8.0 mi NE 8.1 mph - N/A   Clear
2:50 PM 80 °F 29 °F 8% 29.82 in 9 mi West 6.7 mph - -  
3:45 PM 78.8 °F 37.4 °F 23% 30.10 in 8.0 mi East 8.1 mph - N/A   Clear
4:45 PM 77.0 °F 39.2 °F 26% 30.11 in 8.0 mi NE 11.5 mph - N/A   Clear
5:49 PM 71.6 °F 41.0 °F 33% 29.84 in 8.0 mi ENE 11.5 mph - N/A   Clear
5:50 PM 72 °F 34 °F 14% 29.75 in 9 mi NNE 6.7 mph - -  
6:29 PM 66.2 °F 37.4 °F 35% 30.15 in 8.0 mi ENE 6.9 mph - N/A   Clear
6:45 PM 66.2 °F 37.4 °F 35% 30.16 in 7.0 mi ENE 4.6 mph - N/A   Clear
7:49 PM 62.6 °F 41.0 °F 45% 30.18 in 6.0 mi East 4.6 mph - N/A   Clear
8:42 PM 60.8 °F 42.8 °F 52% 30.00 in 6.0 mi East 3.5 mph - N/A   Clear
8:50 PM 62 °F 39 °F 31% 29.80 in 11 mi North 4.5 mph - -  
9:40 PM 59.0 °F 41.0 °F 51% 30.21 in 6.0 mi Calm Calm - N/A   Clear
10:41 PM 57.2 °F 42.8 °F 59% 30.22 in 6.0 mi NE 5.8 mph - N/A   Clear
11:41 PM 55.4 °F 39.2 °F 54% 29.87 in 6.0 mi Calm Calm - N/A   Clear
11:50 PM 56 °F 42 °F 48% 29.88 in 5 mi North 2.2 mph - -